Погода в Золотухе

Россия / Астраханская область     47°48′22″N   46°43′24″E
темп.,
°C
ветер,
м/с
пор.,
м/с
влажн.,
%
обл.,
%
осадки,
мм/ч
давл.,
гПа
погр.,
м
24 сентября, пт
пт2401:00+11ссз3585100 0.0 1011145
04:00+12с3482100 0.0 1012110
07:00+12с4773100 0.1 1010319
10:00+10ссз6993100 9.4 1010337
13:00+10сз71094100 12.0 1010448
16:00+11сз61090100 14.6 1010538
19:00+11зсз7118862 0.1 1011437
22:00+11зсз4983100 0.1 1012313
25 сентября, сб
сб2501:00+9з47800 0.0 1012134
04:00+9з338017 0.0 101241
07:00+9зюз3485100 0.0 101258
10:00+14юз3467100 0.0 1012315
13:00+15з2556100 0.0 1012581
16:00+16з4762100 0.0 10131139
19:00+15ссз2267100 0.0 101322
22:00+12з2389100 0.8 1014157
26 сентября, вс
вс2601:00+12ююз4990100 0.8 1014294
04:00+11юз51086100 0.8 1014282
07:00+10зюз512874 0.0 1014322
10:00+15з610645 0.0 1014762
13:00+16з895794 0.0 10131017
16:00+16з7104896 0.0 10121369
19:00+14зюз61064100 0.1 1011872
22:00+13юз61287100 2.9 1009733
27 сентября, пн
пн2701:00+13з6118692 2.1 1007370
04:00+11зсз813835 2.1 1007527
07:00+9зсз713869 0.0 1009539
10:00+12зсз9116656 0.0 10101195
13:00+12зсз8106649 0.1 10111108
16:00+14зсз81058100 0.2 10121518
19:00+13зсз476178 0.0 1014334
22:00+11сз467742 0.0 1015106
28 сентября, вт
вт2801:00+10сз47865 0.0 1016124
04:00+9ссз35865 0.0 101788
07:00+8ссв46905 0.0 1019142
10:00+12св5666100 0.0 1021660
13:00+12ссв5562100 0.0 10221009
16:00+13с655190 0.0 10231398
19:00+11ссв4651100 0.0 1025173
22:00+12св364785 0.0 1026217